Wichita Falls, TX

12:02 AM CDT on June 25, 2017 (GMT -0500)
Sheppard Air Force Base-Wichita Falls Municipal

Weather History for KSPS - July, 2013

Change the Weather History Date:

Friday, July 5, 2013

  Actual Average Record
Temperature  
Mean Temperature 85 °F 83 °F  
Max Temperature 101 °F 96 °F 108 °F (1996)
Min Temperature 68 °F 71 °F 54 °F (1924)
Cooling Degree Days 20 18  
Month to date cooling degree days 69 90  
Year to date cooling degree days 956 845  
Growing Degree Days 34 (Base 50)    
Moisture  
Dew Point 54 °F    
Average Humidity 43    
Maximum Humidity 70    
Minimum Humidity 15    
Precipitation  
Precipitation 0.00 in 0.06 in 1.46 in (1998)
Month to date precipitation 0.00 0.30  
Year to date precipitation 10.12 15.94  
Sea Level Pressure  
Sea Level Pressure 29.87 in    
Wind  
Wind Speed 14 mph (SSE)    
Max Wind Speed 24 mph    
Max Gust Speed 30 mph    
Visibility 10 miles    
Events      
T = Trace of Precipitation, MM = Missing Value Source: NWS Daily Summary

Daily Weather History Graph

Daily Weather History Graph

Search for Another Location

Airport or City:

Trip Planner

Search our weather history database for the weather conditions in past years. The results will help you decide how hot, cold, wet, or windy it might be!

Date:

Astronomy

Jul. 05, 2013 Rise Set
Actual Time 6:28 AM CDT 8:48 PM CDT
Civil Twilight 5:59 AM CDT 9:17 PM CDT
Nautical Twilight 5:23 AM CDT 9:53 PM CDT
Astronomical Twilight 4:45 AM CDT 10:31 PM CDT
Moon 4:26 AM CDT (7/5) 6:47 PM CDT (7/5)
Length of Visible Light 15h 18m
Length of Day
14h 20m
Waning Crescent, 6% of the Moon is Illuminated
Jul 5
Waning Crescent
Jul 8
New
Jul 15
First Quarter
Jul 22
Full
Jul 29
Last Quarter

Hourly Weather History & Observations

Time (CDT) Temp. Heat Index Dew Point Humidity Pressure Visibility Wind Dir Wind Speed Gust Speed Precip Events Conditions
12:52 AM 78.1 °F - 59.0 °F 52% 29.90 in 10.0 mi SSE 13.8 mph - N/A   Clear
1:52 AM 77.0 °F - 59.0 °F 54% 29.89 in 10.0 mi SSE 13.8 mph - N/A   Clear
2:52 AM 75.0 °F - 59.0 °F 57% 29.88 in 10.0 mi SSE 11.5 mph - N/A   Clear
3:52 AM 73.9 °F - 57.9 °F 57% 29.88 in 10.0 mi SSE 12.7 mph - N/A   Clear
4:52 AM 73.0 °F - 57.9 °F 59% 29.88 in 10.0 mi SSE 8.1 mph - N/A   Clear
5:52 AM 69.1 °F - 57.9 °F 68% 29.90 in 10.0 mi ESE 6.9 mph - N/A   Clear
6:52 AM 70.0 °F - 59.0 °F 68% 29.92 in 9.0 mi ESE 10.4 mph - N/A   Clear
7:52 AM 73.9 °F - 59.0 °F 59% 29.92 in 10.0 mi SE 15.0 mph - N/A   Clear
8:52 AM 78.1 °F - 59.0 °F 52% 29.93 in 10.0 mi SSE 17.3 mph - N/A   Clear
9:52 AM 82.9 °F 82.6 °F 57.9 °F 42% 29.94 in 10.0 mi South 13.8 mph - N/A   Clear
10:52 AM 88.0 °F 86.5 °F 55.9 °F 34% 29.93 in 10.0 mi South 15.0 mph 20.7 mph N/A   Clear
11:52 AM 91.0 °F 88.9 °F 55.0 °F 29% 29.91 in 10.0 mi SSW 16.1 mph - N/A   Clear
12:52 PM 93.9 °F 91.4 °F 53.1 °F 25% 29.90 in 10.0 mi South 16.1 mph 21.9 mph N/A   Clear
1:52 PM 96.1 °F - 50.0 °F 21% 29.87 in 10.0 mi SW 11.5 mph 20.7 mph N/A   Clear
2:52 PM 99.0 °F - 46.0 °F 16% 29.84 in 10.0 mi South 10.4 mph 18.4 mph N/A   Clear
3:52 PM 100.0 °F - 44.1 °F 15% 29.82 in 10.0 mi South 16.1 mph 27.6 mph N/A   Clear
4:25 PM 98.6 °F - 46.4 °F 17% 29.85 in 10.0 mi South 11.5 mph 24.2 mph N/A   Partly Cloudy
4:52 PM 97.0 °F - 46.0 °F 18% 29.80 in 10.0 mi SSE 20.7 mph 26.5 mph N/A   Clear
5:52 PM 98.1 °F - 45.0 °F 16% 29.78 in 10.0 mi SE 17.3 mph 24.2 mph N/A   Clear
6:52 PM 97.0 °F - 44.1 °F 16% 29.77 in 10.0 mi SE 15.0 mph 21.9 mph N/A   Clear
7:52 PM 93.9 °F - 48.9 °F 21% 29.78 in 10.0 mi SE 18.4 mph - N/A   Clear
8:52 PM 90.0 °F - 51.1 °F 26% 29.80 in 10.0 mi SE 15.0 mph 24.2 mph N/A   Clear
9:52 PM 87.1 °F 85.3 °F 55.0 °F 33% 29.81 in 10.0 mi SE 13.8 mph - N/A   Clear
10:52 PM 84.0 °F 83.0 °F 55.9 °F 38% 29.85 in 10.0 mi SE 12.7 mph - N/A   Clear
11:52 PM 82.9 °F 82.1 °F 55.9 °F 39% 29.86 in 10.0 mi SE 13.8 mph - N/A   Clear